Weather History for Tekamah, NE

Change the Weather History Date:

Friday, February 15, 2013

  Actual Average Record
Temperature  
Mean Temperature 23 °F -  
Max Temperature 30 °F 33 °F 61 °F (2014)
Min Temperature 10 °F 16 °F -9 °F (1958)
Degree Days  
Heating Degree Days 42    
Moisture  
Dew Point 17 °F    
Average Humidity 76    
Maximum Humidity 93    
Minimum Humidity 46    
Precipitation  
Precipitation 0.00 in - - ()
Sea Level Pressure  
Sea Level Pressure 30.35 in    
Wind  
Wind Speed 10 mph (NNW)    
Max Wind Speed 15 mph    
Max Gust Speed -    
Visibility 7 miles    
Events Fog , Snow    
Averages and records for this station are not official NWS values.
T = Trace of Precipitation, MM = Missing Value Source: NWS Daily Summary

Daily Weather History Graph

Daily Weather History Graph

Search for Another Location

Airport:

Trip Planner

Search our weather history database for the weather conditions in past years. The results will help you decide how hot, cold, wet, or windy it might be!

Date:

Astronomy

Feb. 15, 2013 Rise Set
Actual Time 7:19 AM CST 5:58 PM CST
Civil Twilight 6:51 AM CST 6:26 PM CST
Nautical Twilight 6:18 AM CST 6:59 PM CST
Astronomical Twilight 5:46 AM CST 7:31 PM CST
Moon 9:50 AM CST (2/15) No Moon Set
Length of Visible Light 11h 35m
Length of Day
10h 38m
Waxing Crescent, 30% of the Moon is Illuminated
Feb 15
Waxing Crescent
Feb 17
First Quarter
Feb 25
Full
Mar 4
Last Quarter
Mar 11
New

Hourly Weather History & Observations

Time (CST) Temp. Windchill Dew Point Humidity Pressure Visibility Wind Dir Wind Speed Gust Speed Precip Events Conditions
12:54 AM 19.0 °F 5.6 °F 10.0 °F 68% 30.33 in 10.0 mi NNW 13.8 mph - N/A   Clear
1:54 AM 18.0 °F 4.2 °F 10.9 °F 74% 30.34 in 10.0 mi NW 13.8 mph - N/A   Clear
2:54 AM 17.1 °F 6.6 °F 10.9 °F 77% 30.35 in 10.0 mi NW 8.1 mph - N/A   Clear
3:54 AM 16.0 °F 6.3 °F 10.0 °F 77% 30.35 in 10.0 mi NW 6.9 mph - N/A   Clear
4:54 AM 16.0 °F 6.3 °F 10.0 °F 77% 30.36 in 10.0 mi NW 6.9 mph - N/A   Clear
5:54 AM 19.0 °F 10.0 °F 10.9 °F 71% 30.38 in 10.0 mi NW 6.9 mph - N/A   Overcast
6:54 AM 19.9 °F 10.1 °F 12.0 °F 71% 30.38 in 10.0 mi North 8.1 mph - N/A   Overcast
7:54 AM 19.0 °F 11.1 °F 12.0 °F 74% 30.38 in 10.0 mi West 5.8 mph - N/A   Clear
8:54 AM 23.0 °F 10.6 °F 15.1 °F 72% 30.38 in 10.0 mi WNW 13.8 mph - N/A   Clear
9:54 AM 26.1 °F 15.0 °F 16.0 °F 66% 30.38 in 10.0 mi NW 12.7 mph - N/A   Clear
10:54 AM 28.9 °F 19.2 °F 15.1 °F 56% 30.39 in 10.0 mi WNW 11.5 mph - N/A   Mostly Cloudy
11:54 AM 28.9 °F 21.9 °F 12.0 °F 49% 30.38 in 10.0 mi NW 6.9 mph - N/A   Overcast
12:54 PM 30.9 °F - 12.0 °F 46% 30.35 in 10.0 mi Calm Calm - N/A   Overcast
1:54 PM 30.9 °F 25.2 °F 15.1 °F 52% 30.34 in 10.0 mi NW 5.8 mph - N/A   Overcast
2:54 PM 30.0 °F 21.7 °F 19.9 °F 66% 30.33 in 2.0 mi NNE 9.2 mph - 0.00 in Snow Light Snow
3:09 PM 28.4 °F 19.1 °F 21.2 °F 74% 30.30 in 3.0 mi NNE 10.4 mph - 0.00 in Snow Light Snow
3:40 PM 28.4 °F 19.7 °F 21.2 °F 74% 30.30 in 2.0 mi NNE 9.2 mph - 0.00 in Snow Light Snow
3:54 PM 28.0 °F 18.6 °F 23.0 °F 81% 30.34 in 1.8 mi NE 10.4 mph - 0.00 in Snow Light Snow
4:06 PM 28.4 °F 20.4 °F 24.8 °F 86% 30.30 in 1.0 mi NE 8.1 mph - 0.00 in Snow Light Snow
4:33 PM 26.6 °F 18.2 °F 21.2 °F 80% 30.30 in 0.8 mi NNE 8.1 mph - 0.00 in Snow Light Snow
4:54 PM 27.0 °F 20.5 °F 21.9 °F 81% 30.35 in 0.5 mi North 5.8 mph - 0.00 in Snow Snow
5:46 PM 26.6 °F 16.8 °F 24.8 °F 93% 30.32 in 0.2 mi North 10.4 mph - 0.00 in Fog , Snow Snow
5:54 PM 26.1 °F 15.6 °F 23.0 °F 88% 30.36 in 0.2 mi North 11.5 mph - 0.00 in Fog , Snow Snow
6:10 PM 26.6 °F 15.7 °F 23.0 °F 86% 30.33 in 1.0 mi North 12.7 mph - 0.00 in Snow Light Snow
6:19 PM 26.6 °F 14.7 °F 21.2 °F 80% 30.33 in 1.8 mi North 15.0 mph - 0.00 in Snow Light Snow
6:25 PM 24.8 °F 14.0 °F 21.2 °F 86% 30.33 in 3.0 mi North 11.5 mph - 0.00 in Snow Light Snow
6:29 PM 24.8 °F 14.6 °F 21.2 °F 86% 30.33 in 4.0 mi North 10.4 mph - 0.00 in   Overcast
6:54 PM 24.1 °F 13.7 °F 21.0 °F 88% 30.38 in 6.0 mi North 10.4 mph - 0.00 in   Overcast
7:30 PM 24.8 °F 14.6 °F 21.2 °F 86% 30.35 in 10.0 mi North 10.4 mph - N/A   Overcast
7:54 PM 25.0 °F 15.5 °F 19.9 °F 81% 30.38 in 10.0 mi NNW 9.2 mph - N/A   Overcast
8:20 PM 24.8 °F 16.1 °F 19.4 °F 80% 30.35 in 10.0 mi NNW 8.1 mph - N/A   Overcast
8:43 PM 24.8 °F 15.3 °F 19.4 °F 80% 30.35 in 10.0 mi NNW 9.2 mph - N/A   Overcast
8:54 PM 25.0 °F 13.1 °F 19.9 °F 81% 30.38 in 10.0 mi North 13.8 mph - N/A   Overcast
9:54 PM 21.9 °F 9.2 °F 14.0 °F 72% 30.40 in 10.0 mi North 13.8 mph - N/A   Overcast
10:15 PM 19.4 °F 7.9 °F 12.2 °F 74% 30.36 in 10.0 mi North 10.4 mph - N/A   Overcast
10:54 PM 16.0 °F 5.3 °F 10.0 °F 77% 30.39 in 10.0 mi North 8.1 mph - N/A   Clear
11:54 PM 10.9 °F 1.4 °F 8.1 °F 88% 30.38 in 10.0 mi WNW 5.8 mph - N/A   Clear